Location: Cutler
(25.6150°N, 80.3110°W)
Time: 15:10:47
(UTC-05:00)

Hubble Space Telescope - Visible Passes

Search period start: 23 November 2017 00:00
Search period end: 03 December 2017 00:00
Orbit: 537 x 541 km, 28.5° (Epoch: 22 November)

Date Brightness Start Highest point End Pass type
(mag) Time Alt. Az. Time Alt. Az. Time Alt. Az.
23 Nov 0.9 05:16:45 50° NW 05:17:29 61° N 05:21:35 10° E visible
24 Nov 0.7 05:07:10 65° N 05:07:19 66° N 05:11:26 10° E visible
25 Nov 1.0 04:57:36 66° ENE 04:57:36 66° ENE 05:01:17 10° E visible
26 Nov 1.6 04:48:02 49° E 04:48:02 49° E 04:51:06 10° ESE visible
27 Nov 2.3 04:38:28 34° ESE 04:38:28 34° ESE 04:40:54 10° ESE visible
27 Nov 2.3 06:14:23 10° W 06:17:46 25° SSW 06:21:10 10° SSE visible
28 Nov 3.0 04:28:56 24° ESE 04:28:56 24° ESE 04:30:39 10° ESE visible
28 Nov 2.6 06:04:32 10° WSW 06:07:30 19° SSW 06:10:28 10° SSE visible
29 Nov 3.5 04:19:26 16° SE 04:19:26 16° SE 04:20:22 10° ESE visible
29 Nov 3.0 05:54:55 10° WSW 05:57:12 15° SSW 05:59:31 10° S visible
30 Nov 4.0 04:09:56 10° SE 04:09:56 10° SE 04:10:01 10° SE visible
30 Nov 3.2 05:45:56 10° SW 05:46:55 11° SSW 05:47:53 10° SSW visible
02 Dec 3.0 19:07:18 10° S 19:09:07 14° SSE 19:09:07 14° SSE visible
